iso_date,epoch_date,Year,Hour,Min,DOY,POS_DOY,Lat,Lon,BP,Ts,Ta,has_bp,has_ts,has_ta,BuoyID,Buoy_Type,Buoy_Owner,Logistics,Hemisphere
2021-03-12T23:28:10Z,1615591691,2021,23,28,71.9779,71.9779,72.73226,-147.71747,1039.2,-2.88,-23.75,yes,yes,yes,300434063446170,unknown,unknown,unknown,North
2021-03-13T00:01:00Z,1615593660,2021,0,1,72.0007,72.0007,72.73256,-147.7175,1039.1,-1.85,-24.75,yes,yes,yes,300434063446170,unknown,unknown,unknown,North
2021-03-13T01:01:03Z,1615597263,2021,1,1,72.0424,72.0424,72.73387,-147.71645,1038.8,-1.85,-25.5,yes,yes,yes,300434063446170,unknown,unknown,unknown,North
2021-03-13T02:01:06Z,1615600866,2021,2,1,72.0841,72.0841,72.73551,-147.71558,1039.4,-1.85,-26.25,yes,yes,yes,300434063446170,unknown,unknown,unknown,North
2021-03-13T03:02:09Z,1615604530,2021,3,2,72.1265,72.1265,72.73724,-147.71518,1039.4,-1.85,-27.44,yes,yes,yes,300434063446170,unknown,unknown,unknown,North
2021-03-13T04:01:03Z,1615608063,2021,4,1,72.1674,72.1674,72.73925,-147.71502,1039.4,-1.83,-28.31,yes,yes,yes,300434063446170,unknown,unknown,unknown,North
2021-03-13T05:01:06Z,1615611666,2021,5,1,72.2091,72.2091,72.74163,-147.71558,1039.6,-1.85,-28.5,yes,yes,yes,300434063446170,unknown,unknown,unknown,North
2021-03-13T06:01:00Z,1615615260,2021,6,1,72.2507,72.2507,72.74438,-147.7169,1039.6,-1.85,-28.62,yes,yes,yes,300434063446170,unknown,unknown,unknown,North
2021-03-13T07:01:03Z,1615618863,2021,7,1,72.2924,72.2924,72.74751,-147.71851,1039.4,-1.83,-28.56,yes,yes,yes,300434063446170,unknown,unknown,unknown,North
2021-03-13T08:00:57Z,1615622458,2021,8,0,72.334,72.334,72.7513,-147.71984,1039.1,-1.83,-28.81,yes,yes,yes,300434063446170,unknown,unknown,unknown,North
2021-03-13T09:00:51Z,1615626052,2021,9,0,72.3756,72.3756,72.75525,-147.72128,1038.6,-1.83,-28.62,yes,yes,yes,300434063446170,unknown,unknown,unknown,North
2021-03-13T10:01:46Z,1615629707,2021,10,1,72.4179,72.4179,72.76033,-147.72133,1038.2,-1.83,-28.62,yes,yes,yes,300434063446170,unknown,unknown,unknown,North
2021-03-13T11:01:23Z,1615633284,2021,11,1,72.4593,72.4593,72.76521,-147.7212,1038.1,-1.83,-28.25,yes,yes,yes,300434063446170,unknown,unknown,unknown,North
2021-03-13T12:01:43Z,1615636904,2021,12,1,72.5012,72.5012,72.77018,-147.72072,1037.8,-1.81,-27.94,yes,yes,yes,300434063446170,unknown,unknown,unknown,North
2021-03-13T13:01:55Z,1615640515,2021,13,1,72.543,72.543,72.77516,-147.72144,1037.3,-1.8,-27.75,yes,yes,yes,300434063446170,unknown,unknown,unknown,North
2021-03-13T14:05:51Z,1615644351,2021,14,5,72.5874,72.5874,72.78054,-147.72283,1036.6,-1.76,-27.44,yes,yes,yes,300434063446170,unknown,unknown,unknown,North
2021-03-13T15:00:51Z,1615647652,2021,15,0,72.6256,72.6256,72.78599,-147.72477,1035.8,-1.83,-27.12,yes,yes,yes,300434063446170,unknown,unknown,unknown,North
2021-03-13T16:00:54Z,1615651255,2021,16,0,72.6673,72.6673,72.79179,-147.72696,1035.3,-1.78,-26.81,yes,yes,yes,300434063446170,unknown,unknown,unknown,North
2021-03-13T17:00:57Z,1615654858,2021,17,1,72.709,72.709,72.79798,-147.72963,1034.9,-1.83,-26.12,yes,yes,yes,300434063446170,unknown,unknown,unknown,North
2021-03-13T18:01:00Z,1615658460,2021,18,1,72.7507,72.7507,72.80471,-147.73318,1034.9,-1.82,-25.38,yes,yes,yes,300434063446170,unknown,unknown,unknown,North
2021-03-13T19:01:55Z,1615662115,2021,19,1,72.793,72.793,72.81129,-147.73773,1033.8,-1.83,-24.44,yes,yes,yes,300434063446170,unknown,unknown,unknown,North
2021-03-13T20:01:58Z,1615665718,2021,20,1,72.8347,72.8347,72.81854,-147.74246,1033.1,-1.8,-23.56,yes,yes,yes,300434063446170,unknown,unknown,unknown,North
2021-03-13T21:01:52Z,1615669312,2021,21,1,72.8763,72.8763,72.82628,-147.74627,1032.5,-1.81,-22.69,yes,yes,yes,300434063446170,unknown,unknown,unknown,North
2021-03-13T22:01:12Z,1615672872,2021,22,1,72.9175,72.9175,72.83425,-147.74962,1031.6,-1.75,-22.06,yes,yes,yes,300434063446170,unknown,unknown,unknown,North
2021-03-13T23:01:14Z,1615676475,2021,23,1,72.9592,72.9592,72.84218,-147.75261,1031.1,-1.74,-21.56,yes,yes,yes,300434063446170,unknown,unknown,unknown,North
2021-03-14T00:01:00Z,1615680060,2021,0,1,73.0007,73.0007,72.84978,-147.75509,1030.4,-1.74,-21.31,yes,yes,yes,300434063446170,unknown,unknown,unknown,North
2021-03-14T01:01:12Z,1615683672,2021,1,1,73.0425,73.0425,72.85699,-147.75778,1029.7,-1.77,-21.38,yes,yes,yes,300434063446170,unknown,unknown,unknown,North
2021-03-14T02:01:58Z,1615687318,2021,2,1,73.0847,73.0847,72.86374,-147.76099,1029.3,-1.74,-21.5,yes,yes,yes,300434063446170,unknown,unknown,unknown,North
2021-03-14T03:01:00Z,1615690860,2021,3,0,73.1257,73.1257,72.86979,-147.76488,1028.1,-1.74,-21.62,yes,yes,yes,300434063446170,unknown,unknown,unknown,North
2021-03-14T04:01:03Z,1615694463,2021,4,1,73.1674,73.1674,72.87538,-147.76978,1028.0,-1.74,-22.69,yes,yes,yes,300434063446170,unknown,unknown,unknown,North
2021-03-14T05:02:15Z,1615698135,2021,5,2,73.2099,73.2099,72.88074,-147.77621,1027.2,-1.74,-22.69,yes,yes,yes,300434063446170,unknown,unknown,unknown,North
2021-03-14T06:00:51Z,1615701652,2021,6,0,73.2506,73.2506,72.8865,-147.78366,1026.9,-1.77,-22.25,yes,yes,yes,300434063446170,unknown,unknown,unknown,North
2021-03-14T07:01:03Z,1615705263,2021,7,0,73.2924,73.2924,72.8926,-147.79155,1026.2,-1.74,-21.69,yes,yes,yes,300434063446170,unknown,unknown,unknown,North
2021-03-14T08:00:57Z,1615708858,2021,8,0,73.334,73.334,72.89876,-147.80005,1025.8,-1.74,-22.75,yes,yes,yes,300434063446170,unknown,unknown,unknown,North
2021-03-14T09:01:17Z,1615712478,2021,9,1,73.3759,73.3759,72.90452,-147.80922,1025.3,-1.74,-23.0,yes,yes,yes,300434063446170,unknown,unknown,unknown,North
2021-03-14T10:01:03Z,1615716063,2021,10,1,73.4174,73.4174,72.91098,-147.81912,1024.7,-1.74,-23.44,yes,yes,yes,300434063446170,unknown,unknown,unknown,North
2021-03-14T11:00:57Z,1615719658,2021,11,0,73.459,73.459,72.91682,-147.82947,1024.3,-1.77,-23.69,yes,yes,yes,300434063446170,unknown,unknown,unknown,North
2021-03-14T12:01:00Z,1615723260,2021,12,1,73.5007,73.5007,72.92257,-147.83987,1024.1,-1.77,-23.75,yes,yes,yes,300434063446170,unknown,unknown,unknown,North
2021-03-14T13:01:03Z,1615726863,2021,13,1,73.5424,73.5424,72.92798,-147.85102,1023.3,-1.74,-23.62,yes,yes,yes,300434063446170,unknown,unknown,unknown,North
2021-03-14T14:01:06Z,1615730466,2021,14,1,73.5841,73.5841,72.9334,-147.86357,1022.5,-1.74,-23.5,yes,yes,yes,300434063446170,unknown,unknown,unknown,North
2021-03-14T15:01:26Z,1615734086,2021,15,1,73.626,73.626,72.93874,-147.87811,1021.7,-1.75,-23.44,yes,yes,yes,300434063446170,unknown,unknown,unknown,North
2021-03-14T16:01:03Z,1615737663,2021,16,1,73.6674,73.6674,72.94385,-147.89328,1021.4,-1.74,-23.31,yes,yes,yes,300434063446170,unknown,unknown,unknown,North
2021-03-14T17:01:06Z,1615741266,2021,17,1,73.7091,73.7091,72.94918,-147.90938,1021.2,-1.74,-23.06,yes,yes,yes,300434063446170,unknown,unknown,unknown,North
2021-03-14T18:02:00Z,1615744921,2021,18,2,73.7514,73.7514,72.95462,-147.92685,1020.6,-1.74,-22.75,yes,yes,yes,300434063446170,unknown,unknown,unknown,North
2021-03-14T19:01:03Z,1615748463,2021,19,1,73.7924,73.7924,72.9603,-147.94589,1020.0,-1.74,-22.5,yes,yes,yes,300434063446170,unknown,unknown,unknown,North
2021-03-14T21:01:00Z,1615755660,2021,21,1,73.8757,73.8757,72.97276,-147.98552,1019.5,-1.8,-21.44,yes,yes,yes,300434063446170,unknown,unknown,unknown,North
2021-03-14T22:01:03Z,1615759263,2021,22,1,73.9174,73.9174,72.97927,-148.00568,1019.0,-1.83,-21.12,yes,yes,yes,300434063446170,unknown,unknown,unknown,North
2021-03-14T23:03:41Z,1615763022,2021,23,3,73.9609,73.9609,72.98579,-148.02533,1018.9,-1.81,-20.81,yes,yes,yes,300434063446170,unknown,unknown,unknown,North
2021-03-15T00:01:00Z,1615766460,2021,0,1,74.0007,74.0007,72.99209,-148.0456,1018.2,-1.81,-20.31,yes,yes,yes,300434063446170,unknown,unknown,unknown,North
2021-03-15T01:01:03Z,1615770063,2021,1,1,74.0424,74.0424,72.99815,-148.0676,1018.1,-1.85,-20.25,yes,yes,yes,300434063446170,unknown,unknown,unknown,North
2021-03-15T02:00:57Z,1615773658,2021,2,0,74.084,74.084,73.00395,-148.08838,1017.8,-1.85,-20.19,yes,yes,yes,300434063446170,unknown,unknown,unknown,North
2021-03-15T03:01:00Z,1615777260,2021,3,1,74.1257,74.1257,73.00936,-148.1091,1017.9,-1.83,-21.31,yes,yes,yes,300434063446170,unknown,unknown,unknown,North
2021-03-15T04:01:55Z,1615780915,2021,4,1,74.168,74.168,73.01469,-148.12944,1017.8,-1.8,-21.81,yes,yes,yes,300434063446170,unknown,unknown,unknown,North
2021-03-15T05:01:49Z,1615784509,2021,5,1,74.2096,74.2096,73.01928,-148.1504,1018.0,-1.81,-22.06,yes,yes,yes,300434063446170,unknown,unknown,unknown,North
2021-03-15T06:01:00Z,1615788060,2021,6,1,74.2507,74.2507,73.02396,-148.17192,1017.9,-1.8,-22.19,yes,yes,yes,300434063446170,unknown,unknown,unknown,North
2021-03-15T07:01:03Z,1615791663,2021,7,1,74.2924,74.2924,73.02843,-148.1923,1017.9,-1.82,-22.69,yes,yes,yes,300434063446170,unknown,unknown,unknown,North
2021-03-15T08:01:23Z,1615795284,2021,8,1,74.3343,74.3343,73.0326,-148.21328,1018.5,-1.83,-23.06,yes,yes,yes,300434063446170,unknown,unknown,unknown,North
2021-03-15T09:01:00Z,1615798860,2021,9,1,74.3757,74.3757,73.03682,-148.23514,1018.5,-1.82,-23.69,yes,yes,yes,300434063446170,unknown,unknown,unknown,North
2021-03-15T10:01:55Z,1615802515,2021,10,1,74.418,74.418,73.0408,-148.25677,1018.7,-1.82,-23.81,yes,yes,yes,300434063446170,unknown,unknown,unknown,North
2021-03-15T11:00:57Z,1615806058,2021,11,0,74.459,74.459,73.04444,-148.27867,1018.6,-1.83,-23.75,yes,yes,yes,300434063446170,unknown,unknown,unknown,North
2021-03-15T12:01:52Z,1615809712,2021,12,1,74.5013,74.5013,73.04826,-148.30155,1018.4,-1.83,-23.62,yes,yes,yes,300434063446170,unknown,unknown,unknown,North
2021-03-15T13:01:03Z,1615813263,2021,13,1,74.5424,74.5424,73.05194,-148.32486,1018.2,-1.83,-23.0,yes,yes,yes,300434063446170,unknown,unknown,unknown,North
2021-03-15T14:01:49Z,1615816909,2021,14,1,74.5846,74.5846,73.05548,-148.3461,1018.1,-1.79,-22.94,yes,yes,yes,300434063446170,unknown,unknown,unknown,North
2021-03-15T15:01:00Z,1615820460,2021,15,1,74.6257,74.6257,73.05876,-148.36954,1018.3,-1.81,-22.56,yes,yes,yes,300434063446170,unknown,unknown,unknown,North
2021-03-15T17:00:57Z,1615827658,2021,17,0,74.709,74.709,73.06555,-148.41362,1018.4,-1.82,-22.44,yes,yes,yes,300434063446170,unknown,unknown,unknown,North
2021-03-15T18:01:00Z,1615831260,2021,18,1,74.7507,74.7507,73.06878,-148.43568,1018.5,-1.82,-21.94,yes,yes,yes,300434063446170,unknown,unknown,unknown,North
2021-03-15T19:01:03Z,1615834863,2021,19,1,74.7924,74.7924,73.072,-148.45803,1018.9,-1.83,-21.19,yes,yes,yes,300434063446170,unknown,unknown,unknown,North
2021-03-15T20:01:23Z,1615838484,2021,20,1,74.8343,74.8343,73.07517,-148.4805,1019.0,-1.78,-20.38,yes,yes,yes,300434063446170,unknown,unknown,unknown,North
2021-03-15T21:01:00Z,1615842060,2021,21,1,74.8757,74.8757,73.07838,-148.50245,1019.4,-1.82,-19.0,yes,yes,yes,300434063446170,unknown,unknown,unknown,North
2021-03-15T22:02:29Z,1615845750,2021,22,2,74.9184,74.9184,73.08166,-148.52486,1019.6,-1.83,-18.19,yes,yes,yes,300434063446170,unknown,unknown,unknown,North
2021-03-15T23:01:58Z,1615849318,2021,23,1,74.9597,74.9597,73.08517,-148.54694,1019.6,-1.8,-17.56,yes,yes,yes,300434063446170,unknown,unknown,unknown,North
2021-03-16T00:02:00Z,1615852921,2021,0,1,75.0014,75.0014,73.08739,-148.5667,1019.6,-1.81,-17.44,yes,yes,yes,300434063446170,unknown,unknown,unknown,North
2021-03-16T01:01:12Z,1615856472,2021,1,1,75.0425,75.0425,73.0897,-148.58448,1019.7,-1.79,-18.44,yes,yes,yes,300434063446170,unknown,unknown,unknown,North
2021-03-16T02:01:06Z,1615860066,2021,2,1,75.0841,75.0841,73.09173,-148.60162,1019.9,-1.78,-19.62,yes,yes,yes,300434063446170,unknown,unknown,unknown,North
2021-03-16T03:03:18Z,1615863799,2021,3,3,75.1273,75.1273,73.09345,-148.61771,1020.3,-1.83,-20.62,yes,yes,yes,300434063446170,unknown,unknown,unknown,North
2021-03-16T04:01:03Z,1615867263,2021,4,1,75.1674,75.1674,73.09489,-148.63291,1020.7,-1.78,-21.75,yes,yes,yes,300434063446170,unknown,unknown,unknown,North
2021-03-16T05:00:57Z,1615870858,2021,5,0,75.209,75.209,73.0963,-148.64771,1020.4,-1.81,-22.38,yes,yes,yes,300434063446170,unknown,unknown,unknown,North
2021-03-16T06:01:00Z,1615874460,2021,6,1,75.2507,75.2507,73.09741,-148.66296,1020.4,-1.83,-22.75,yes,yes,yes,300434063446170,unknown,unknown,unknown,North
2021-03-16T07:01:03Z,1615878063,2021,7,1,75.2924,75.2924,73.09843,-148.67754,1020.1,-1.82,-22.94,yes,yes,yes,300434063446170,unknown,unknown,unknown,North
2021-03-16T08:00:57Z,1615881658,2021,8,1,75.334,75.334,73.09936,-148.69214,1020.3,-1.8,-23.31,yes,yes,yes,300434063446170,unknown,unknown,unknown,North
2021-03-16T09:01:00Z,1615885260,2021,9,1,75.3757,75.3757,73.10025,-148.70622,1020.5,-1.8,-23.31,yes,yes,yes,300434063446170,unknown,unknown,unknown,North
2021-03-16T10:01:55Z,1615888915,2021,10,1,75.418,75.418,73.10113,-148.72045,1020.5,-1.83,-23.19,yes,yes,yes,300434063446170,unknown,unknown,unknown,North
2021-03-16T11:01:58Z,1615892518,2021,11,1,75.4597,75.4597,73.10201,-148.73514,1020.3,-1.83,-23.44,yes,yes,yes,300434063446170,unknown,unknown,unknown,North
2021-03-16T12:02:52Z,1615896173,2021,12,2,75.502,75.502,73.10282,-148.7503,1020.4,-1.83,-23.56,yes,yes,yes,300434063446170,unknown,unknown,unknown,North
2021-03-16T13:01:03Z,1615899663,2021,13,1,75.5424,75.5424,73.10348,-148.76562,1020.0,-1.83,-23.56,yes,yes,yes,300434063446170,unknown,unknown,unknown,North
2021-03-16T14:00:57Z,1615903258,2021,14,0,75.584,75.584,73.10441,-148.7816,1019.9,-1.82,-23.31,yes,yes,yes,300434063446170,unknown,unknown,unknown,North
2021-03-16T15:01:52Z,1615906912,2021,15,1,75.6263,75.6263,73.10515,-148.7969,1020.1,-1.83,-23.88,yes,yes,yes,300434063446170,unknown,unknown,unknown,North
2021-03-16T16:00:54Z,1615910455,2021,16,0,75.6673,75.6673,73.10559,-148.81192,1020.2,-1.8,-23.81,yes,yes,yes,300434063446170,unknown,unknown,unknown,North
2021-03-16T17:02:58Z,1615914179,2021,17,2,75.7104,75.7104,73.10607,-148.82603,1020.1,-1.85,-23.44,yes,yes,yes,300434063446170,unknown,unknown,unknown,North
2021-03-16T18:01:00Z,1615917660,2021,18,1,75.7507,75.7507,73.10618,-148.84066,1020.1,-1.85,-22.5,yes,yes,yes,300434063446170,unknown,unknown,unknown,North
2021-03-16T20:01:49Z,1615924909,2021,20,1,75.8346,75.8346,73.10634,-148.87166,1020.1,-1.85,-21.5,yes,yes,yes,300434063446170,unknown,unknown,unknown,North
2021-03-16T21:02:00Z,1615928521,2021,21,2,75.8764,75.8764,73.10646,-148.88795,1019.7,-1.85,-21.06,yes,yes,yes,300434063446170,unknown,unknown,unknown,North
2021-03-16T22:01:20Z,1615932081,2021,22,1,75.9176,75.9176,73.10664,-148.90488,1019.8,-1.85,-20.31,yes,yes,yes,300434063446170,unknown,unknown,unknown,North
2021-03-16T23:00:57Z,1615935658,2021,23,0,75.959,75.959,73.10706,-148.9225,1019.8,-1.85,-20.12,yes,yes,yes,300434063446170,unknown,unknown,unknown,North
2021-03-17T00:01:00Z,1615939260,2021,0,1,76.0007,76.0007,73.10767,-148.94022,1019.5,-1.85,-19.69,yes,yes,yes,300434063446170,unknown,unknown,unknown,North
2021-03-17T01:01:12Z,1615942872,2021,1,1,76.0425,76.0425,73.10864,-148.9571,1019.0,-1.85,-19.88,yes,yes,yes,300434063446170,unknown,unknown,unknown,North
2021-03-17T02:00:57Z,1615946458,2021,2,1,76.084,76.084,73.10889,-148.97325,1018.6,-1.83,-20.25,yes,yes,yes,300434063446170,unknown,unknown,unknown,North
2021-03-17T03:01:00Z,1615950060,2021,3,1,76.1257,76.1257,73.10937,-148.98786,1018.4,-1.85,-21.31,yes,yes,yes,300434063446170,unknown,unknown,unknown,North
2021-03-17T04:01:46Z,1615953707,2021,4,1,76.1679,76.1679,73.10961,-149.00134,1018.2,-1.85,-22.5,yes,yes,yes,300434063446170,unknown,unknown,unknown,North
2021-03-17T05:01:49Z,1615957309,2021,5,1,76.2096,76.2096,73.10962,-149.01355,1018.0,-1.85,-23.5,yes,yes,yes,300434063446170,unknown,unknown,unknown,North
2021-03-17T06:01:52Z,1615960912,2021,6,1,76.2513,76.2513,73.10939,-149.02624,1017.6,-1.85,-23.56,yes,yes,yes,300434063446170,unknown,unknown,unknown,North
2021-03-17T07:01:46Z,1615964507,2021,7,1,76.2929,76.2929,73.10906,-149.03957,1017.3,-1.83,-23.75,yes,yes,yes,300434063446170,unknown,unknown,unknown,North
2021-03-17T08:00:57Z,1615968058,2021,8,0,76.334,76.334,73.10878,-149.05352,1017.3,-1.85,-24.81,yes,yes,yes,300434063446170,unknown,unknown,unknown,North
2021-03-17T09:01:09Z,1615971669,2021,9,1,76.3758,76.3758,73.10845,-149.06739,1016.9,-1.85,-24.62,yes,yes,yes,300434063446170,unknown,unknown,unknown,North
2021-03-17T10:00:54Z,1615975255,2021,10,0,76.4173,76.4173,73.10806,-149.08056,1016.4,-1.83,-24.88,yes,yes,yes,300434063446170,unknown,unknown,unknown,North
2021-03-17T11:02:49Z,1615978970,2021,11,2,76.4603,76.4603,73.10777,-149.09341,1016.2,-1.85,-22.62,yes,yes,yes,300434063446170,unknown,unknown,unknown,North
2021-03-17T12:01:17Z,1615982478,2021,12,1,76.5009,76.5009,73.10729,-149.10646,1015.9,-1.85,-22.19,yes,yes,yes,300434063446170,unknown,unknown,unknown,North
2021-03-17T13:00:54Z,1615986055,2021,13,0,76.5423,76.5423,73.10676,-149.11947,1015.6,-1.83,-22.0,yes,yes,yes,300434063446170,unknown,unknown,unknown,North
2021-03-17T14:02:58Z,1615989779,2021,14,2,76.5854,76.5854,73.10633,-149.13288,1015.4,-1.85,-21.81,yes,yes,yes,300434063446170,unknown,unknown,unknown,North
2021-03-17T15:01:52Z,1615993312,2021,15,1,76.6263,76.6263,73.10581,-149.14592,1015.5,-1.85,-22.94,yes,yes,yes,300434063446170,unknown,unknown,unknown,North
2021-03-17T16:03:04Z,1615996984,2021,16,3,76.6688,76.6688,73.10527,-149.15824,1015.4,-1.85,-23.81,yes,yes,yes,300434063446170,unknown,unknown,unknown,North
2021-03-17T17:01:06Z,1616000466,2021,17,1,76.7091,76.7091,73.10471,-149.16957,1015.2,-1.83,-24.44,yes,yes,yes,300434063446170,unknown,unknown,unknown,North
2021-03-17T18:02:18Z,1616004138,2021,18,2,76.7516,76.7516,73.10393,-149.18115,1014.9,-1.85,-24.5,yes,yes,yes,300434063446170,unknown,unknown,unknown,North
2021-03-17T19:01:03Z,1616007663,2021,19,1,76.7924,76.7924,73.10311,-149.19344,1014.9,-1.85,-24.12,yes,yes,yes,300434063446170,unknown,unknown,unknown,North
2021-03-17T20:01:06Z,1616011266,2021,20,1,76.8341,76.8341,73.10238,-149.20618,1014.5,-1.85,-23.62,yes,yes,yes,300434063446170,unknown,unknown,unknown,North
2021-03-17T21:01:35Z,1616014895,2021,21,1,76.8761,76.8761,73.10168,-149.21912,1014.5,-1.85,-23.75,yes,yes,yes,300434063446170,unknown,unknown,unknown,North
2021-03-17T22:00:54Z,1616018455,2021,22,0,76.9173,76.9173,73.10084,-149.23277,1014.5,-1.85,-22.81,yes,yes,yes,300434063446170,unknown,unknown,unknown,North
2021-03-17T23:01:23Z,1616022084,2021,23,1,76.9593,76.9593,73.10002,-149.24677,1014.3,-1.85,-22.56,yes,yes,yes,300434063446170,unknown,unknown,unknown,North
2021-03-18T00:01:52Z,1616025712,2021,0,1,77.0013,77.0013,73.09924,-149.26058,1014.0,-1.85,-22.62,yes,yes,yes,300434063446170,unknown,unknown,unknown,North
2021-03-18T01:01:03Z,1616029263,2021,1,1,77.0424,77.0424,73.09848,-149.27344,1013.7,-1.85,-22.94,yes,yes,yes,300434063446170,unknown,unknown,unknown,North
2021-03-18T02:00:57Z,1616032858,2021,2,0,77.084,77.084,73.09753,-149.28538,1013.2,-1.85,-23.5,yes,yes,yes,300434063446170,unknown,unknown,unknown,North
2021-03-18T03:01:43Z,1616036504,2021,3,1,77.1262,77.1262,73.09643,-149.29598,1013.0,-1.85,-24.5,yes,yes,yes,300434063446170,unknown,unknown,unknown,North
2021-03-18T04:01:12Z,1616040072,2021,4,1,77.1675,77.1675,73.09511,-149.30563,1013.3,-1.85,-25.94,yes,yes,yes,300434063446170,unknown,unknown,unknown,North
2021-03-18T05:01:49Z,1616043709,2021,5,1,77.2096,77.2096,73.0938,-149.314,1013.1,-1.85,-25.5,yes,yes,yes,300434063446170,unknown,unknown,unknown,North
2021-03-18T06:01:00Z,1616047260,2021,6,1,77.2507,77.2507,73.09238,-149.32333,1012.8,-1.85,-25.06,yes,yes,yes,300434063446170,unknown,unknown,unknown,North
2021-03-18T07:01:03Z,1616050863,2021,7,0,77.2924,77.2924,73.09078,-149.33162,1012.4,-1.85,-25.69,yes,yes,yes,300434063446170,unknown,unknown,unknown,North
2021-03-18T08:02:41Z,1616054561,2021,8,2,77.3352,77.3352,73.089,-149.33981,1012.3,-1.85,-25.88,yes,yes,yes,300434063446170,unknown,unknown,unknown,North
2021-03-18T09:01:00Z,1616058060,2021,9,1,77.3757,77.3757,73.08732,-149.34794,1012.2,-1.85,-26.38,yes,yes,yes,300434063446170,unknown,unknown,unknown,North
2021-03-18T10:02:12Z,1616061732,2021,10,2,77.4182,77.4182,73.08539,-149.35573,1012.1,-1.85,-25.75,yes,yes,yes,300434063446170,unknown,unknown,unknown,North
2021-03-18T11:00:57Z,1616065258,2021,11,0,77.459,77.459,73.08326,-149.36278,1011.6,-1.85,-25.62,yes,yes,yes,300434063446170,unknown,unknown,unknown,North
2021-03-18T12:01:00Z,1616068860,2021,12,1,77.5007,77.5007,73.08134,-149.36946,1011.7,-1.85,-25.75,yes,yes,yes,300434063446170,unknown,unknown,unknown,North
2021-03-18T13:01:03Z,1616072463,2021,13,1,77.5424,77.5424,73.0787,-149.376,1011.4,-1.85,-24.81,yes,yes,yes,300434063446170,unknown,unknown,unknown,North
2021-03-18T14:00:57Z,1616076058,2021,14,0,77.584,77.584,73.07589,-149.38234,1011.0,-1.85,-25.06,yes,yes,yes,300434063446170,unknown,unknown,unknown,North
2021-03-18T15:01:52Z,1616079712,2021,15,1,77.6263,77.6263,73.07309,-149.38818,1011.1,-1.85,-24.25,yes,yes,yes,300434063446170,unknown,unknown,unknown,North
2021-03-18T16:01:03Z,1616083263,2021,16,1,77.6674,77.6674,73.07009,-149.39434,1011.0,-1.85,-23.56,yes,yes,yes,300434063446170,unknown,unknown,unknown,North
2021-03-18T17:01:06Z,1616086866,2021,17,1,77.7091,77.7091,73.0679,-149.40024,1010.6,-1.85,-23.44,yes,yes,yes,300434063446170,unknown,unknown,unknown,North
2021-03-18T18:01:00Z,1616090460,2021,18,1,77.7507,77.7507,73.06483,-149.40699,1010.9,-1.85,-21.06,yes,yes,yes,300434063446170,unknown,unknown,unknown,North
2021-03-18T19:01:03Z,1616094063,2021,19,1,77.7924,77.7924,73.06185,-149.41512,1011.2,-1.85,-20.12,yes,yes,yes,300434063446170,unknown,unknown,unknown,North
2021-03-18T20:00:57Z,1616097658,2021,20,0,77.834,77.834,73.05888,-149.42501,1011.4,-1.85,-18.81,yes,yes,yes,300434063446170,unknown,unknown,unknown,North
2021-03-18T21:01:00Z,1616101260,2021,21,0,77.8757,77.8757,73.05591,-149.43621,1012.0,-1.85,-18.56,yes,yes,yes,300434063446170,unknown,unknown,unknown,North
2021-03-18T22:02:47Z,1616104967,2021,22,2,77.9186,77.9186,73.05294,-149.44693,1012.8,-1.85,-19.69,yes,yes,yes,300434063446170,unknown,unknown,unknown,North
2021-03-18T23:00:57Z,1616108458,2021,23,1,77.959,77.959,73.04999,-149.45766,1013.7,-1.85,-20.44,yes,yes,yes,300434063446170,unknown,unknown,unknown,North
2021-03-19T00:01:00Z,1616112060,2021,0,1,78.0007,78.0007,73.04702,-149.46962,1014.4,-1.85,-20.62,yes,yes,yes,300434063446170,unknown,unknown,unknown,North
2021-03-19T01:01:03Z,1616115663,2021,1,1,78.0424,78.0424,73.04435,-149.48253,1015.2,-1.85,-21.06,yes,yes,yes,300434063446170,unknown,unknown,unknown,North
2021-03-19T02:01:06Z,1616119266,2021,2,1,78.0841,78.0841,73.04175,-149.49275,1015.5,-1.85,-21.38,yes,yes,yes,300434063446170,unknown,unknown,unknown,North
2021-03-19T03:03:01Z,1616122981,2021,3,3,78.1271,78.1271,73.03962,-149.50006,1016.4,-1.85,-21.69,yes,yes,yes,300434063446170,unknown,unknown,unknown,North
2021-03-19T04:01:03Z,1616126463,2021,4,1,78.1674,78.1674,73.03786,-149.50488,1017.0,-1.85,-22.44,yes,yes,yes,300434063446170,unknown,unknown,unknown,North
2021-03-19T05:01:06Z,1616130066,2021,5,1,78.2091,78.2091,73.03624,-149.50861,1017.7,-1.85,-23.25,yes,yes,yes,300434063446170,unknown,unknown,unknown,North
2021-03-19T06:01:00Z,1616133660,2021,6,1,78.2507,78.2507,73.03471,-149.51181,1018.0,-1.85,-23.38,yes,yes,yes,300434063446170,unknown,unknown,unknown,North
2021-03-19T07:01:12Z,1616137272,2021,7,1,78.2925,78.2925,73.03342,-149.51422,1018.3,-1.85,-24.06,yes,yes,yes,300434063446170,unknown,unknown,unknown,North
2021-03-19T08:01:06Z,1616140866,2021,8,1,78.3341,78.3341,73.03221,-149.51648,1018.9,-1.85,-25.0,yes,yes,yes,300434063446170,unknown,unknown,unknown,North
2021-03-19T09:01:00Z,1616144460,2021,9,1,78.3757,78.3757,73.03134,-149.51765,1019.1,-1.83,-25.06,yes,yes,yes,300434063446170,unknown,unknown,unknown,North
2021-03-19T11:00:57Z,1616151658,2021,11,1,78.459,78.459,73.02954,-149.51891,1019.7,-1.85,-25.75,yes,yes,yes,300434063446170,unknown,unknown,unknown,North
2021-03-19T12:02:00Z,1616155321,2021,12,1,78.5014,78.5014,73.02869,-149.51949,1020.0,-1.85,-25.94,yes,yes,yes,300434063446170,unknown,unknown,unknown,North